SWR189 ZSPD-LSZH

Flight info

Callsign SWR189
Flight time N/A
Altitude 30100
Route PIK81D PIKAS G330 PIMOL A593 XUTGU/K0893S0980 A593 DALIM W157 BEKDO/K0874S0950 W157 VYK G212 SOTMU/K0872S0980 B339 ASILA A575 UPREK W28 KEVOB/K0867S1040 W28 LAGEB W66 NUKTI B215 FKG A368 SARIN/K0869F340 N161 GOMAL/K0867F360 N161 GASBI/N0467F360 N161 ABTEK/N0469F380 N161 LEYLA N644 ADEKI DCT BADIR DCT LAGAS DCT NOLGA UN61 TBN UM11 CRM UL746 ODERO DCT LUGEB DCT SOKRU DCT INVED DCT SUNIS DCT ERKIR DCT KPT L856 NEGRA
Aircraft A343/H-SDE2E3FGHIJ4J5M1RWXY/LB1D1

Departure

Time 2026-05-04 01:50
Airport Shanghai Pudong International Airport (ZSPD)

Arrival

Time N/A
Airport Zürich Airport (LSZH)
Time Latitude Longitude Altitude Speed Heading
2026-05-04 01:23 31.16043 121.80669 29 ft 0 kts 72°
2026-05-04 01:28 31.16038 121.80652 31 ft 3 kts 72°
2026-05-04 01:29 31.16032 121.80631 31 ft 3 kts 74°
2026-05-04 01:29 31.16031 121.80608 31 ft 3 kts 120°
2026-05-04 01:29 31.16041 121.80593 31 ft 0 kts 157°
2026-05-04 01:32 31.16011 121.80598 30 ft 8 kts 172°
2026-05-04 01:32 31.15954 121.80611 28 ft 8 kts 168°
2026-05-04 01:33 31.15907 121.80623 28 ft 6 kts 168°
2026-05-04 01:33 31.15869 121.80633 28 ft 5 kts 163°
2026-05-04 01:33 31.15843 121.80647 31 ft 3 kts 155°
2026-05-04 01:33 31.15826 121.80656 31 ft 2 kts 155°
2026-05-04 01:34 31.15816 121.80662 28 ft 1 kts 155°
2026-05-04 01:34 31.15814 121.80663 28 ft 0 kts 155°
2026-05-04 01:35 31.15807 121.80666 30 ft 6 kts 157°
2026-05-04 01:35 31.15765 121.80716 28 ft 12 kts 102°
2026-05-04 01:35 31.15785 121.80826 28 ft 16 kts 78°
2026-05-04 01:36 31.15724 121.80905 31 ft 15 kts 160°
2026-05-04 01:36 31.15617 121.80945 28 ft 18 kts 162°
2026-05-04 01:36 31.15478 121.80997 29 ft 24 kts 162°
2026-05-04 01:36 31.15303 121.81063 27 ft 29 kts 162°
2026-05-04 01:37 31.15141 121.81124 28 ft 22 kts 163°
2026-05-04 01:37 31.15003 121.81178 30 ft 20 kts 162°
2026-05-04 01:37 31.14881 121.81224 29 ft 18 kts 162°
2026-05-04 01:37 31.14770 121.81266 29 ft 16 kts 162°
2026-05-04 01:38 31.14672 121.81303 30 ft 14 kts 162°
2026-05-04 01:38 31.14594 121.81318 31 ft 7 kts 199°
2026-05-04 01:38 31.14573 121.81288 30 ft 5 kts 242°
2026-05-04 01:38 31.14557 121.81242 26 ft 6 kts 249°
2026-05-04 01:39 31.14541 121.81189 26 ft 9 kts 251°
2026-05-04 01:39 31.14515 121.81092 28 ft 15 kts 252°
2026-05-04 01:39 31.14472 121.80936 28 ft 25 kts 252°
2026-05-04 01:39 31.14422 121.80745 30 ft 23 kts 251°
2026-05-04 01:40 31.14372 121.80575 28 ft 21 kts 252°
2026-05-04 01:40 31.14330 121.80423 28 ft 19 kts 251°
2026-05-04 01:40 31.14291 121.80288 30 ft 17 kts 252°
2026-05-04 01:40 31.14258 121.80168 28 ft 15 kts 252°
2026-05-04 01:41 31.14228 121.80063 30 ft 13 kts 252°
2026-05-04 01:41 31.14204 121.79972 30 ft 11 kts 251°
2026-05-04 01:41 31.14182 121.79894 28 ft 9 kts 252°
2026-05-04 01:41 31.14161 121.79818 29 ft 10 kts 253°
2026-05-04 01:42 31.14140 121.79745 29 ft 9 kts 251°
2026-05-04 01:42 31.14152 121.79680 31 ft 8 kts 318°
2026-05-04 01:42 31.14208 121.79651 28 ft 12 kts 340°
2026-05-04 01:42 31.14319 121.79609 29 ft 20 kts 342°
2026-05-04 01:43 31.14455 121.79557 30 ft 20 kts 341°
2026-05-04 01:43 31.14582 121.79509 28 ft 18 kts 342°
2026-05-04 01:43 31.14697 121.79465 30 ft 17 kts 342°
2026-05-04 01:43 31.14814 121.79422 29 ft 19 kts 343°
2026-05-04 01:44 31.14956 121.79368 29 ft 23 kts 342°
2026-05-04 01:44 31.15123 121.79305 30 ft 27 kts 342°
2026-05-04 01:44 31.15307 121.79236 28 ft 27 kts 342°
2026-05-04 01:44 31.15421 121.79193 28 ft 25 kts 342°
2026-05-04 01:45 31.15582 121.79132 30 ft 23 kts 342°
2026-05-04 01:45 31.15727 121.79078 28 ft 21 kts 342°
2026-05-04 01:45 31.15977 121.78983 28 ft 17 kts 342°
2026-05-04 01:46 31.16082 121.78943 30 ft 15 kts 342°
2026-05-04 01:46 31.16166 121.78894 29 ft 12 kts 303°
2026-05-04 01:46 31.16164 121.78810 30 ft 10 kts 255°
2026-05-04 01:46 31.16144 121.78743 30 ft 8 kts 252°
2026-05-04 01:47 31.16143 121.78735 29 ft 0 kts 252°
2026-05-04 01:47 31.16134 121.78703 30 ft 8 kts 252°
2026-05-04 01:47 31.16110 121.78634 30 ft 9 kts 226°
2026-05-04 01:48 31.16043 121.78630 29 ft 8 kts 163°
2026-05-04 01:48 31.16033 121.78635 28 ft 0 kts 161°
2026-05-04 01:48 31.16029 121.78636 28 ft 5 kts 161°
2026-05-04 01:48 31.15841 121.78708 30 ft 54 kts 162°
2026-05-04 01:49 31.15317 121.78903 26 ft 103 kts 162°
2026-05-04 01:49 31.14511 121.79209 27 ft 143 kts 162°
2026-05-04 01:49 31.13433 121.79617 31 ft 178 kts 163°
2026-05-04 01:49 31.12224 121.80074 388 ft 183 kts 163°
2026-05-04 01:50 31.10980 121.80535 722 ft 196 kts 165°
2026-05-04 01:50 31.09588 121.81042 920 ft 221 kts 164°
2026-05-04 01:50 31.08046 121.81617 1290 ft 243 kts 163°
2026-05-04 01:50 31.06361 121.82189 1780 ft 260 kts 168°
2026-05-04 01:51 31.04568 121.82714 2145 ft 271 kts 169°
2026-05-04 01:51 31.02668 121.83035 2402 ft 277 kts 181°
2026-05-04 01:51 31.00823 121.82819 2416 ft 270 kts 198°
2026-05-04 01:51 30.99083 121.81996 2562 ft 266 kts 213°
2026-05-04 01:52 30.97632 121.80695 2941 ft 263 kts 229°
2026-05-04 01:52 30.96535 121.79013 3603 ft 258 kts 243°
2026-05-04 01:52 30.95820 121.77074 3954 ft 268 kts 257°
2026-05-04 01:52 30.95576 121.74883 4224 ft 273 kts 273°
2026-05-04 01:53 30.95835 121.72753 4166 ft 260 kts 288°
2026-05-04 01:53 30.96356 121.70783 4143 ft 251 kts 287°
2026-05-04 01:53 30.96750 121.68793 4310 ft 259 kts 282°
2026-05-04 01:53 30.97100 121.66710 4797 ft 261 kts 283°
2026-05-04 01:54 30.97458 121.64699 5266 ft 261 kts 284°
2026-05-04 01:54 30.97837 121.62626 5762 ft 260 kts 285°
2026-05-04 01:54 30.98220 121.60572 6277 ft 261 kts 285°
2026-05-04 01:54 30.98605 121.58497 6772 ft 262 kts 285°
2026-05-04 01:55 30.98988 121.56440 7249 ft 262 kts 285°
2026-05-04 01:55 30.99376 121.54339 7718 ft 262 kts 284°
2026-05-04 01:55 30.99759 121.52260 8129 ft 263 kts 284°
2026-05-04 01:55 31.00142 121.50173 8542 ft 265 kts 284°
2026-05-04 01:56 31.00527 121.48064 8957 ft 267 kts 283°
2026-05-04 01:56 31.00916 121.45945 9384 ft 268 kts 284°
2026-05-04 01:56 31.01310 121.43803 9786 ft 271 kts 283°
2026-05-04 01:56 31.01708 121.41645 10154 ft 273 kts 283°
2026-05-04 01:57 31.02102 121.39496 10466 ft 276 kts 283°
2026-05-04 01:57 31.02504 121.37299 10803 ft 279 kts 283°
2026-05-04 01:57 31.02910 121.35081 11154 ft 281 kts 283°
2026-05-04 01:57 31.03304 121.32921 11482 ft 282 kts 283°
2026-05-04 01:58 31.03714 121.30676 11840 ft 284 kts 283°
2026-05-04 01:58 31.04125 121.28421 12157 ft 288 kts 283°
2026-05-04 01:58 31.04549 121.26099 12349 ft 295 kts 283°
2026-05-04 01:58 31.04980 121.23731 12570 ft 302 kts 283°
2026-05-04 01:59 31.05423 121.21303 12788 ft 309 kts 283°
2026-05-04 01:59 31.05880 121.18824 12988 ft 316 kts 283°
2026-05-04 01:59 31.06572 121.16371 13178 ft 323 kts 297°
2026-05-04 01:59 31.07914 121.14249 13376 ft 331 kts 317°
2026-05-04 02:00 31.09867 121.12782 13581 ft 341 kts 337°
2026-05-04 02:00 31.12222 121.12204 13777 ft 353 kts 354°
2026-05-04 02:00 31.14706 121.12082 14028 ft 361 kts 355°
2026-05-04 02:00 31.17209 121.11974 14214 ft 368 kts 355°
2026-05-04 02:01 31.19829 121.11844 14401 ft 376 kts 354°
2026-05-04 02:01 31.22435 121.11697 14627 ft 382 kts 354°
2026-05-04 02:01 31.25096 121.11552 14975 ft 385 kts 354°
2026-05-04 02:01 31.27787 121.11403 15335 ft 387 kts 354°
2026-05-04 02:02 31.30482 121.11254 15704 ft 390 kts 354°
2026-05-04 02:02 31.33208 121.11098 16072 ft 392 kts 354°
2026-05-04 02:02 31.35943 121.11054 16423 ft 396 kts 359°
2026-05-04 02:02 31.38706 121.11212 16783 ft 399 kts 360°
2026-05-04 02:03 31.41485 121.11401 17163 ft 401 kts 360°
2026-05-04 02:03 31.44269 121.11399 17508 ft 400 kts 349°
2026-05-04 02:03 31.46948 121.10606 17867 ft 396 kts 335°
2026-05-04 02:03 31.49472 121.09318 18250 ft 396 kts 332°
2026-05-04 02:04 31.51983 121.07966 18599 ft 398 kts 332°
2026-05-04 02:04 31.54502 121.06615 18913 ft 400 kts 332°
2026-05-04 02:04 31.56963 121.05302 19221 ft 401 kts 332°
2026-05-04 02:04 31.59511 121.03943 19531 ft 403 kts 332°
2026-05-04 02:05 31.62063 121.02583 19839 ft 404 kts 331°
2026-05-04 02:05 31.64640 121.01210 20152 ft 406 kts 331°
2026-05-04 02:05 31.67213 120.99838 20445 ft 408 kts 330°
2026-05-04 02:05 31.69808 120.98455 20768 ft 409 kts 330°
2026-05-04 02:06 31.72373 120.97087 21060 ft 411 kts 330°
2026-05-04 02:06 31.75008 120.95681 21347 ft 413 kts 330°
2026-05-04 02:06 31.77634 120.94277 21611 ft 415 kts 330°
2026-05-04 02:06 31.80267 120.92870 21912 ft 417 kts 330°
2026-05-04 02:07 31.82912 120.91455 22189 ft 418 kts 330°
2026-05-04 02:07 31.85563 120.90037 22463 ft 420 kts 330°
2026-05-04 02:07 31.88222 120.88613 22732 ft 421 kts 329°
2026-05-04 02:07 31.90861 120.87199 22989 ft 423 kts 329°
2026-05-04 02:08 31.93553 120.85756 23233 ft 425 kts 329°
2026-05-04 02:08 31.96245 120.84314 23517 ft 427 kts 330°
2026-05-04 02:08 31.98954 120.82862 23714 ft 429 kts 330°
2026-05-04 02:08 32.01681 120.81393 23909 ft 431 kts 330°
2026-05-04 02:09 32.04421 120.79918 24115 ft 433 kts 329°
2026-05-04 02:09 32.07158 120.78443 24287 ft 434 kts 329°
2026-05-04 02:09 32.09845 120.76834 24482 ft 431 kts 322°
2026-05-04 02:09 32.12250 120.74769 24658 ft 425 kts 312°
2026-05-04 02:10 32.14262 120.72251 24843 ft 420 kts 302°
2026-05-04 02:10 32.15834 120.69371 25050 ft 415 kts 292°
2026-05-04 02:10 32.16925 120.66243 25247 ft 411 kts 283°
2026-05-04 02:10 32.17534 120.62966 25467 ft 409 kts 276°
2026-05-04 02:11 32.17899 120.59634 25685 ft 409 kts 274°
2026-05-04 02:11 32.18179 120.56297 25893 ft 409 kts 273°
2026-05-04 02:11 32.18426 120.52962 26123 ft 409 kts 272°
2026-05-04 02:11 32.18669 120.49618 26342 ft 409 kts 272°
2026-05-04 02:12 32.18919 120.46272 26546 ft 409 kts 272°
2026-05-04 02:12 32.19175 120.42965 26743 ft 410 kts 272°
2026-05-04 02:12 32.19443 120.39614 26944 ft 410 kts 272°
2026-05-04 02:12 32.19716 120.36241 27073 ft 413 kts 272°
2026-05-04 02:13 32.19991 120.32871 27241 ft 413 kts 272°
2026-05-04 02:13 32.20268 120.29495 27458 ft 413 kts 272°
2026-05-04 02:13 32.20549 120.26116 27670 ft 413 kts 272°
2026-05-04 02:13 32.20831 120.22743 27853 ft 413 kts 272°
2026-05-04 02:14 32.21107 120.19362 28039 ft 414 kts 272°
2026-05-04 02:14 32.21381 120.15974 28222 ft 414 kts 272°
2026-05-04 02:14 32.21655 120.12583 28387 ft 414 kts 271°
2026-05-04 02:14 32.21927 120.09200 28603 ft 414 kts 271°
2026-05-04 02:15 32.22200 120.05806 28801 ft 414 kts 271°
2026-05-04 02:15 32.22472 120.02430 29075 ft 412 kts 271°
2026-05-04 02:15 32.22741 119.99082 29362 ft 409 kts 271°
2026-05-04 02:15 32.23008 119.95739 29634 ft 407 kts 271°
2026-05-04 02:16 32.23273 119.92418 29891 ft 405 kts 271°
2026-05-04 02:16 32.23532 119.89150 30132 ft 403 kts 270°
2026-05-04 02:16 32.23804 119.85854 30322 ft 403 kts 272°
2026-05-04 02:16 32.24325 119.82548 30469 ft 408 kts 278°
2026-05-04 02:17 32.26587 119.76270 30589 ft 427 kts 294°
2026-05-04 02:17 32.28372 119.73472 30741 ft 437 kts 303°
2026-05-04 02:17 32.30611 119.70977 30864 ft 449 kts 311°
2026-05-04 02:18 32.33098 119.68718 31025 ft 451 kts 313°
2026-05-04 02:18 32.35639 119.66538 31163 ft 452 kts 314°
2026-05-04 02:18 32.38204 119.64388 31274 ft 452 kts 314°
2026-05-04 02:18 32.40772 119.62243 31418 ft 452 kts 314°
2026-05-04 02:19 32.43339 119.60088 31523 ft 451 kts 314°
2026-05-04 02:19 32.45895 119.57926 31627 ft 450 kts 313°
2026-05-04 02:19 32.48438 119.55767 31754 ft 450 kts 313°
2026-05-04 02:19 32.50972 119.53592 31891 ft 449 kts 313°
2026-05-04 02:20 32.53491 119.51412 32018 ft 448 kts 313°
2026-05-04 02:20 32.56005 119.49230 32194 ft 447 kts 312°
2026-05-04 02:20 32.58491 119.47077 32528 ft 441 kts 312°
2026-05-04 02:20 32.60968 119.44931 32605 ft 441 kts 312°
2026-05-04 02:21 32.65942 119.40604 32648 ft 444 kts 312°
2026-05-04 02:21 32.70931 119.36271 32759 ft 445 kts 312°
2026-05-04 02:22 32.75931 119.31926 32880 ft 446 kts 312°
2026-05-04 02:22 32.80936 119.27572 32988 ft 446 kts 312°
2026-05-04 02:23 32.85949 119.23206 33148 ft 446 kts 312°
2026-05-04 02:23 32.88450 119.21027 33260 ft 445 kts 312°
2026-05-04 02:23 32.90946 119.18848 33285 ft 446 kts 312°
2026-05-04 02:24 32.95930 119.14500 33355 ft 448 kts 312°
2026-05-04 02:24 33.00986 119.10146 33448 ft 449 kts 313°
2026-05-04 02:25 33.06056 119.05787 33552 ft 449 kts 313°
2026-05-04 02:25 33.11129 119.01413 33634 ft 450 kts 312°
2026-05-04 02:26 33.16205 118.97025 33750 ft 451 kts 313°
2026-05-04 02:26 33.21296 118.92616 33720 ft 455 kts 314°
2026-05-04 02:27 33.26402 118.88161 33813 ft 454 kts 314°
2026-05-04 02:27 33.31511 118.83697 33906 ft 455 kts 314°
2026-05-04 02:28 33.36648 118.79245 33981 ft 456 kts 314°
2026-05-04 02:28 33.41788 118.74791 34054 ft 456 kts 314°
2026-05-04 02:29 33.46929 118.70329 34104 ft 458 kts 315°
2026-05-04 02:29 33.51234 118.66602 34092 ft 460 kts 315°
2026-05-04 02:30 33.56427 118.62098 34124 ft 462 kts 316°
2026-05-04 02:30 33.61634 118.57574 34216 ft 461 kts 316°
2026-05-04 02:31 33.66830 118.53054 34262 ft 462 kts 316°
2026-05-04 02:31 33.72032 118.48521 34322 ft 462 kts 316°
2026-05-04 02:32 33.77209 118.44003 34385 ft 463 kts 317°
2026-05-04 02:32 33.82421 118.39448 34425 ft 463 kts 317°
2026-05-04 02:33 33.87636 118.34885 34498 ft 464 kts 317°
2026-05-04 02:33 33.92858 118.30308 34542 ft 464 kts 317°
2026-05-04 02:34 33.98077 118.25728 34592 ft 464 kts 318°
2026-05-04 02:34 34.03316 118.21166 34642 ft 465 kts 318°
2026-05-04 02:35 34.08568 118.16591 34677 ft 466 kts 319°
2026-05-04 02:35 34.13826 118.12015 34735 ft 466 kts 319°
2026-05-04 02:36 34.19086 118.07430 34780 ft 466 kts 319°
2026-05-04 02:36 34.24343 118.02841 34796 ft 466 kts 319°
2026-05-04 02:37 34.30112 117.99100 34791 ft 478 kts 335°
2026-05-04 02:37 34.36455 117.96632 34826 ft 479 kts 338°
2026-05-04 02:38 34.42872 117.94369 34826 ft 480 kts 338°
2026-05-04 02:38 34.49292 117.92117 34828 ft 480 kts 338°
2026-05-04 02:39 34.55693 117.89841 34833 ft 480 kts 338°
2026-05-04 02:39 34.62053 117.87561 34850 ft 479 kts 338°
2026-05-04 02:40 34.68437 117.85266 34852 ft 479 kts 338°
2026-05-04 02:40 34.74829 117.82965 34852 ft 479 kts 338°
2026-05-04 02:41 34.81219 117.80664 34851 ft 479 kts 338°
2026-05-04 02:41 34.87613 117.78354 34880 ft 479 kts 339°
2026-05-04 02:42 34.94006 117.76033 34882 ft 479 kts 339°
2026-05-04 02:42 35.00406 117.73695 34882 ft 479 kts 339°
2026-05-04 02:43 35.06757 117.71368 34888 ft 479 kts 339°
2026-05-04 02:43 35.13150 117.69032 34905 ft 479 kts 339°
2026-05-04 02:44 35.19536 117.66683 34905 ft 479 kts 339°
2026-05-04 02:44 35.25883 117.64346 34901 ft 479 kts 339°
2026-05-04 02:45 35.32254 117.61998 34899 ft 478 kts 339°
2026-05-04 02:45 35.38628 117.59646 34913 ft 478 kts 339°
2026-05-04 02:46 35.44990 117.57295 34920 ft 477 kts 339°
2026-05-04 02:46 35.51359 117.54938 34919 ft 477 kts 339°
2026-05-04 02:47 35.57690 117.52591 34918 ft 478 kts 339°
2026-05-04 02:47 35.64050 117.50229 34917 ft 478 kts 339°
2026-05-04 02:48 35.70414 117.47861 34924 ft 478 kts 339°
2026-05-04 02:48 35.76771 117.45495 34920 ft 477 kts 340°
2026-05-04 02:49 35.83112 117.43128 34936 ft 476 kts 340°
2026-05-04 02:49 35.89449 117.40758 34935 ft 475 kts 340°
2026-05-04 02:50 35.95772 117.38390 34936 ft 475 kts 340°
2026-05-04 02:50 36.02114 117.36018 34936 ft 475 kts 340°
2026-05-04 02:51 36.08447 117.33679 34951 ft 474 kts 340°
2026-05-04 02:51 36.14761 117.31348 34953 ft 473 kts 340°
2026-05-04 02:52 36.21030 117.29027 34952 ft 473 kts 340°
2026-05-04 02:52 36.27330 117.26688 34949 ft 473 kts 340°
2026-05-04 02:53 36.33629 117.24347 34959 ft 471 kts 340°
2026-05-04 02:53 36.39905 117.22009 34957 ft 470 kts 340°
2026-05-04 02:54 36.45995 117.19127 34953 ft 468 kts 335°
2026-05-04 02:54 36.52016 117.16028 34946 ft 467 kts 335°
2026-05-04 02:55 36.61004 117.11327 34963 ft 466 kts 335°
2026-05-04 02:56 36.66978 117.08203 34954 ft 466 kts 335°
2026-05-04 02:56 36.72958 117.05076 34955 ft 466 kts 335°
2026-05-04 02:57 36.78943 117.01944 34960 ft 466 kts 335°
2026-05-04 02:57 36.84873 116.98835 34967 ft 464 kts 335°
2026-05-04 02:58 36.90821 116.95712 34968 ft 464 kts 335°
2026-05-04 02:58 36.96774 116.92579 34964 ft 464 kts 335°
2026-05-04 02:59 37.02728 116.89442 34968 ft 464 kts 335°
2026-05-04 02:59 37.08665 116.86308 34974 ft 461 kts 335°
2026-05-04 03:00 37.14569 116.83186 34974 ft 460 kts 335°
2026-05-04 03:00 37.20479 116.80071 34974 ft 461 kts 337°
2026-05-04 03:01 37.26579 116.77564 34974 ft 462 kts 340°
2026-05-04 03:01 37.32744 116.75216 34989 ft 462 kts 340°
2026-05-04 03:02 37.38894 116.72907 34988 ft 461 kts 340°
2026-05-04 03:02 37.45057 116.70583 34984 ft 461 kts 340°
2026-05-04 03:03 37.51163 116.68269 34983 ft 461 kts 340°
2026-05-04 03:03 37.57304 116.65935 35001 ft 461 kts 340°
2026-05-04 03:04 37.63434 116.63601 34998 ft 460 kts 340°
2026-05-04 03:04 37.69576 116.61258 34996 ft 460 kts 340°
2026-05-04 03:05 37.75714 116.58913 34995 ft 460 kts 340°
2026-05-04 03:05 37.81843 116.56568 35015 ft 460 kts 340°
2026-05-04 03:06 37.87961 116.54224 35013 ft 459 kts 340°
2026-05-04 03:06 37.94066 116.51871 35013 ft 458 kts 339°
2026-05-04 03:07 37.99752 116.48347 35014 ft 454 kts 325°
2026-05-04 03:07 38.04908 116.43835 35013 ft 453 kts 323°
2026-05-04 03:08 38.10012 116.39125 35008 ft 453 kts 322°
2026-05-04 03:08 38.15108 116.34410 35010 ft 453 kts 322°
2026-05-04 03:09 38.20284 116.29830 35005 ft 455 kts 329°
2026-05-04 03:09 38.26202 116.26952 35006 ft 461 kts 347°
2026-05-04 03:10 38.32655 116.26834 35016 ft 471 kts
2026-05-04 03:10 38.39073 116.28768 35024 ft 475 kts 11°
2026-05-04 03:11 38.45435 116.31028 35024 ft 475 kts 11°
2026-05-04 03:11 38.51792 116.33293 35045 ft 473 kts 11°
2026-05-04 03:12 38.58137 116.35508 35046 ft 473 kts 11°
2026-05-04 03:12 38.64457 116.37695 35045 ft 473 kts 11°
2026-05-04 03:13 38.70799 116.39914 35060 ft 472 kts 11°
2026-05-04 03:13 38.77132 116.42144 35062 ft 472 kts 11°
2026-05-04 03:14 38.83461 116.44376 35056 ft 471 kts 11°
2026-05-04 03:14 38.89783 116.46609 35068 ft 471 kts 11°
2026-05-04 03:15 38.96072 116.48834 35070 ft 471 kts 11°
2026-05-04 03:15 39.02429 116.51088 35072 ft 471 kts 11°
2026-05-04 03:16 39.08703 116.53317 35089 ft 470 kts 11°
2026-05-04 03:16 39.15003 116.55559 35088 ft 470 kts 11°
2026-05-04 03:17 39.21312 116.57831 35072 ft 472 kts 13°
2026-05-04 03:17 39.26492 116.60139 35090 ft 474 kts 16°
2026-05-04 03:18 39.32659 116.63160 35102 ft 474 kts 17°
2026-05-04 03:18 39.38835 116.66136 35095 ft 474 kts 16°
2026-05-04 03:19 39.45034 116.69052 35107 ft 472 kts 16°
2026-05-04 03:19 39.51216 116.71939 35109 ft 472 kts 16°
2026-05-04 03:20 39.57391 116.74826 35112 ft 472 kts 16°
2026-05-04 03:20 39.63564 116.77721 35125 ft 470 kts 17°
2026-05-04 03:21 39.69649 116.80583 35123 ft 470 kts 17°
2026-05-04 03:21 39.75804 116.83447 35122 ft 468 kts 13°
2026-05-04 03:22 39.82128 116.84700 35128 ft 461 kts 356°
2026-05-04 03:22 39.88330 116.83852 35132 ft 459 kts 350°
2026-05-04 03:23 39.94643 116.82595 35134 ft 459 kts 349°
2026-05-04 03:23 40.00962 116.81285 35133 ft 459 kts 349°
2026-05-04 03:24 40.07281 116.80001 35132 ft 459 kts 349°
2026-05-04 03:24 40.13599 116.78733 35132 ft 459 kts 349°
2026-05-04 03:25 40.19917 116.77467 35133 ft 459 kts 349°
2026-05-04 03:25 40.26235 116.76198 35136 ft 460 kts 349°
2026-05-04 03:26 40.32555 116.74835 35131 ft 459 kts 345°
2026-05-04 03:26 40.38473 116.72651 35132 ft 458 kts 342°
2026-05-04 03:27 40.44532 116.70219 35140 ft 458 kts 342°
2026-05-04 03:27 40.50623 116.67733 35138 ft 458 kts 342°
2026-05-04 03:28 40.56638 116.65283 35136 ft 459 kts 342°
2026-05-04 03:28 40.62748 116.62798 35136 ft 458 kts 342°
2026-05-04 03:29 40.68833 116.60322 35139 ft 459 kts 342°
2026-05-04 03:29 40.74942 116.57833 35137 ft 459 kts 342°
2026-05-04 03:30 40.81229 116.56384 35127 ft 460 kts 353°
2026-05-04 03:30 40.87631 116.55699 35145 ft 462 kts 354°
2026-05-04 03:31 40.94004 116.55131 35179 ft 462 kts 354°
2026-05-04 03:31 41.00418 116.54558 35192 ft 462 kts 354°
2026-05-04 03:32 41.06852 116.53965 35203 ft 463 kts 354°
2026-05-04 03:32 41.13283 116.53364 35205 ft 463 kts 354°
2026-05-04 03:33 41.19724 116.52745 35212 ft 463 kts 352°
2026-05-04 03:33 41.25935 116.50675 35206 ft 459 kts 334°
2026-05-04 03:34 41.31509 116.46687 35211 ft 459 kts 329°
2026-05-04 03:34 41.37001 116.42339 35218 ft 459 kts 328°
2026-05-04 03:35 41.42469 116.37955 35211 ft 459 kts 328°
2026-05-04 03:35 41.47950 116.33584 35215 ft 459 kts 329°
2026-05-04 03:36 41.53431 116.29225 35222 ft 458 kts 329°
2026-05-04 03:36 41.58876 116.24891 35207 ft 457 kts 329°
2026-05-04 03:37 41.64329 116.20541 35227 ft 456 kts 329°
2026-05-04 03:37 41.69772 116.16188 35223 ft 456 kts 329°
2026-05-04 03:38 41.75226 116.11819 35223 ft 455 kts 329°
2026-05-04 03:38 41.80660 116.07457 35218 ft 455 kts 329°
2026-05-04 03:39 41.86078 116.03099 35224 ft 455 kts 329°
2026-05-04 03:39 41.91499 115.98713 35214 ft 455 kts 327°
2026-05-04 03:40 41.96240 115.93191 35206 ft 456 kts 310°
2026-05-04 03:40 41.99674 115.86005 35220 ft 457 kts 301°
2026-05-04 03:41 42.02731 115.78485 35218 ft 457 kts 300°
2026-05-04 03:41 42.05733 115.70946 35223 ft 457 kts 300°
2026-05-04 03:42 42.08734 115.63453 35212 ft 458 kts 300°
2026-05-04 03:42 42.11786 115.55864 35211 ft 458 kts 300°
2026-05-04 03:43 42.14796 115.48370 35211 ft 458 kts 300°
2026-05-04 03:43 42.17826 115.40806 35211 ft 458 kts 300°
2026-05-04 03:44 42.20840 115.33245 35200 ft 457 kts 298°
2026-05-04 03:44 42.22902 115.25097 35205 ft 463 kts 281°
2026-05-04 03:45 42.22998 115.16357 35225 ft 469 kts 269°
2026-05-04 03:45 42.22416 115.07626 35266 ft 470 kts 268°
2026-05-04 03:46 42.21750 114.98859 35265 ft 470 kts 268°
2026-05-04 03:46 42.21104 114.90096 35258 ft 470 kts 268°
2026-05-04 03:47 42.20474 114.81327 35258 ft 470 kts 268°
2026-05-04 03:47 42.19843 114.72552 35248 ft 470 kts 268°
2026-05-04 03:48 42.19203 114.63768 35254 ft 470 kts 268°
2026-05-04 03:48 42.18555 114.54978 35256 ft 470 kts 268°
2026-05-04 03:49 42.17901 114.46203 35248 ft 470 kts 268°
2026-05-04 03:49 42.17241 114.37436 35247 ft 470 kts 268°
2026-05-04 03:50 42.16574 114.28652 35249 ft 470 kts 268°
2026-05-04 03:50 42.15903 114.19922 35235 ft 471 kts 268°
2026-05-04 03:51 42.15221 114.11145 35252 ft 471 kts 268°
2026-05-04 03:51 42.14534 114.02374 35247 ft 471 kts 267°
2026-05-04 03:52 42.13837 113.93583 35243 ft 471 kts 267°
2026-05-04 03:52 42.13135 113.84801 35235 ft 471 kts 267°
2026-05-04 03:53 42.12432 113.76084 35244 ft 471 kts 267°
2026-05-04 03:53 42.11718 113.67322 35242 ft 470 kts 267°
2026-05-04 03:54 42.10993 113.58515 35237 ft 471 kts 267°
2026-05-04 03:54 42.10186 113.49804 35239 ft 474 kts 262°
2026-05-04 03:55 42.08681 113.41091 35216 ft 475 kts 259°
2026-05-04 03:55 42.07072 113.32538 35230 ft 474 kts 259°
2026-05-04 03:56 42.05431 113.23937 35237 ft 475 kts 259°
2026-05-04 03:56 42.03788 113.15319 35242 ft 475 kts 259°
2026-05-04 03:57 42.02144 113.06719 35222 ft 475 kts 259°
2026-05-04 03:57 42.00503 112.98121 35271 ft 474 kts 259°
2026-05-04 03:58 41.98031 112.85243 35319 ft 474 kts 259°
2026-05-04 03:58 41.96381 112.76713 35346 ft 474 kts 259°
2026-05-04 03:59 41.94906 112.68125 35380 ft 470 kts 267°
2026-05-04 03:59 41.95154 112.59464 35383 ft 461 kts 285°
2026-05-04 04:00 41.96704 112.51125 35412 ft 460 kts 288°
2026-05-04 04:00 41.98421 112.42855 35402 ft 459 kts 288°
2026-05-04 04:01 42.00135 112.34569 35413 ft 460 kts 288°
2026-05-04 04:01 42.01817 112.26277 35418 ft 460 kts 287°
2026-05-04 04:02 42.03482 112.17976 35419 ft 460 kts 287°
2026-05-04 04:02 42.05133 112.09701 35410 ft 459 kts 287°
2026-05-04 04:03 42.06517 112.02740 35411 ft 459 kts 287°
2026-05-04 04:03 42.08429 111.93092 35410 ft 459 kts 287°
2026-05-04 04:04 42.09805 111.86119 35416 ft 459 kts 287°
2026-05-04 04:04 42.11429 111.77857 35401 ft 460 kts 287°
2026-05-04 04:05 42.13069 111.69478 35396 ft 460 kts 287°
2026-05-04 04:05 42.14684 111.61198 35403 ft 460 kts 287°
2026-05-04 04:06 42.16302 111.52863 35402 ft 460 kts 287°
2026-05-04 04:06 42.17913 111.44526 35406 ft 460 kts 287°
2026-05-04 04:07 42.19520 111.36175 35393 ft 460 kts 286°
2026-05-04 04:07 42.20218 111.27579 35391 ft 467 kts 269°
2026-05-04 04:08 42.19499 111.18851 35392 ft 469 kts 265°
2026-05-04 04:08 42.18546 111.10142 35373 ft 470 kts 265°
2026-05-04 04:09 42.17568 111.01434 35383 ft 470 kts 265°
2026-05-04 04:09 42.16608 110.92727 35390 ft 470 kts 265°
2026-05-04 04:10 42.15653 110.84001 35381 ft 470 kts 265°
2026-05-04 04:10 42.14702 110.75355 35385 ft 470 kts 265°
2026-05-04 04:11 42.13735 110.66629 35382 ft 470 kts 265°
2026-05-04 04:11 42.12761 110.57910 35388 ft 470 kts 265°
2026-05-04 04:12 42.11782 110.49213 35437 ft 470 kts 265°
2026-05-04 04:12 42.10793 110.40487 35441 ft 470 kts 265°
2026-05-04 04:13 42.09809 110.31904 36195 ft 450 kts 265°
2026-05-04 04:13 42.09327 110.27779 36607 ft 444 kts 265°
2026-05-04 04:13 42.08855 110.23684 36738 ft 440 kts 265°
2026-05-04 04:14 42.07922 110.15561 36798 ft 438 kts 265°
2026-05-04 04:14 42.06986 110.07469 36797 ft 437 kts 265°
2026-05-04 04:15 42.06047 109.99444 36799 ft 436 kts 265°
2026-05-04 04:15 42.05100 109.91407 36813 ft 434 kts 265°
2026-05-04 04:16 42.04149 109.83385 36810 ft 433 kts 264°
2026-05-04 04:16 42.03197 109.75402 36804 ft 432 kts 265°
2026-05-04 04:17 42.02239 109.67427 36817 ft 430 kts 265°
2026-05-04 04:17 42.01286 109.59531 36819 ft 429 kts 265°
2026-05-04 04:18 42.00329 109.51651 36815 ft 427 kts 264°
2026-05-04 04:18 41.99367 109.43777 36822 ft 426 kts 264°
2026-05-04 04:19 41.98404 109.35946 36826 ft 424 kts 264°
2026-05-04 04:19 41.97438 109.28134 36822 ft 422 kts 264°
2026-05-04 04:20 41.96473 109.20372 36820 ft 420 kts 264°
2026-05-04 04:20 41.95509 109.12663 36833 ft 418 kts 264°
2026-05-04 04:21 41.94543 109.04993 36829 ft 415 kts 264°
2026-05-04 04:21 41.93579 108.97367 36829 ft 412 kts 264°
2026-05-04 04:22 41.92616 108.89796 36840 ft 410 kts 264°
2026-05-04 04:22 41.91661 108.82324 36837 ft 407 kts 264°
2026-05-04 04:23 41.90703 108.74865 36828 ft 404 kts 264°
2026-05-04 04:23 41.89746 108.67471 36823 ft 400 kts 264°
2026-05-04 04:24 41.88796 108.60163 36786 ft 397 kts 264°
2026-05-04 04:24 41.88318 108.56479 36512 ft 402 kts 264°
2026-05-04 04:24 41.87834 108.52752 36260 ft 407 kts 264°
2026-05-04 04:25 41.87342 108.48982 36016 ft 413 kts 264°
2026-05-04 04:25 41.86843 108.45164 35765 ft 418 kts 264°
2026-05-04 04:25 41.86333 108.41290 35497 ft 425 kts 264°
2026-05-04 04:25 41.85815 108.37360 35260 ft 431 kts 264°
2026-05-04 04:26 41.85288 108.33377 35028 ft 438 kts 263°
2026-05-04 04:26 41.84749 108.29325 34859 ft 442 kts 263°
2026-05-04 04:26 41.83657 108.21170 34829 ft 445 kts 263°
2026-05-04 04:27 41.82564 108.13046 34827 ft 447 kts 263°
2026-05-04 04:27 41.81456 108.04839 34834 ft 449 kts 263°
2026-05-04 04:28 41.80337 107.96591 34832 ft 451 kts 263°
2026-05-04 04:28 41.79209 107.88326 34833 ft 453 kts 263°
2026-05-04 04:29 41.78067 107.80004 34843 ft 455 kts 263°
2026-05-04 04:29 41.76915 107.71652 34841 ft 457 kts 263°